Wind_Speed
60 70 71 70 69 70 72 73 70 64 63 65 64 59 52 49 46 46 47 48 50 50 50 51 53 53 50 47 44 43 43 41 45 46 44 45 44 43 41 46 50 51 54 55
66 62 68 69 67 66 69 71 70 68 67 67 64 60 56 54 49 50 50 49 47 45 46 48 49 49 45 45 44 42 44 45 42 39 35 36 39 39 35 38 39 42 48 46
58 61 59 62 63 66 65 65 67 69 69 67 64 61 59 59 55 53 51 50 47 46 44 42 44 43 42 40 39 38 39 39 37 37 44 45 45 42 41 40 44 46 46 43
51 50 56 52 50 53 48 55 62 65 66 64 63 62 60 59 57 54 53 52 49 49 48 44 43 45 43 40 39 36 40 41 40 37 40 42 43 47 52 54 50 48 47 46
47 49 51 49 50 47 39 49 50 55 61 60 57 57 61 58 54 57 57 54 49 47 48 47 46 47 45 44 42 39 37 38 41 40 39 42 43 42 44 46 47 44 42 49
56 52 48 49 49 37 40 49 48 44 48 52 53 53 51 51 52 55 52 53 52 50 48 49 49 50 49 48 46 43 43 41 38 40 37 40 42 36 37 42 40 41 43 36
58 50 50 51 45 47 38 48 46 43 46 48 47 45 43 45 47 50 49 48 48 46 45 46 46 46 47 47 44 44 44 44 44 45 43 48 41 39 38 45 44 45 44 41
41 46 50 46 51 42 48 41 44 42 46 46 45 45 42 41 43 46 47 47 46 46 42 46 47 48 48 46 44 44 42 41 43 45 44 46 43 39 39 38 32 33 31 30
37 36 39 41 45 57 63 53 55 54 58 55 51 48 46 45 45 45 45 45 45 43 44 40 35 41 45 45 44 41 41 41 39 42 43 44 37 38 41 45 28 28 23 22
29 29 32 41 47 53 56 61 61 63 64 56 51 49 47 47 47 47 48 50 51 49 47 45 38 38 34 38 38 34 35 39 43 41 41 40 32 37 39 39 33 27 25 23
22 22 23 25 30 35 41 45 48 50 48 42 39 38 40 40 39 39 40 44 48 48 48 38 39 38 31 29 23 26 30 30 35 36 36 33 28 30 32 27 29 24 25 29
15 16 16 16 16 17 16 17 22 25 31 32 31 30 32 33 33 33 35 34 32 33 38 38 36 27 27 21 30 24 25 25 27 27 26 26 23 22 22 27 23 28 31 30
15 15 15 16 14 10 5 3 7 14 16 18 24 23 24 33 36 36 33 32 30 28 36 30 14 16 34 28 24 22 21 23 24 25 24 23 22 21 19 23 22 25 26 27
12 13 13 13 11 9 7 4 3 3 13 4 11 17 17 20 28 36 34 30 32 30 38 32 16 11 29 29 24 25 20 18 21 22 23 24 19 20 24 18 18 19 22 26
13 16 18 18 17 15 11 13 7 7 6 12 13 17 19 21 25 28 30 28 34 38 39 31 20 13 23 32 28 28 25 20 21 20 23 20 21 20 19 18 20 22 25 27
9 12 15 17 21 24 23 21 18 12 12 12 12 8 5 13 16 25 26 34 41 35 33 29 27 17 23 27 25 23 17 17 16 20 22 21 19 20 19 22 24 23 20 15
13 16 18 19 20 22 24 23 15 17 14 12 8 8 8 8 15 21 28 40 33 30 30 30 31 16 23 26 20 11 12 11 17 15 14 19 21 20 19 20 19 15 13 14
11 12 13 15 22 24 21 17 21 24 19 17 7 4 8 10 15 18 29 34 32 28 27 31 32 28 25 22 14 12 11 9 13 18 18 19 17 16 16 14 11 10 14 15
8 10 13 21 21 22 18 14 14 16 20 16 9 13 10 7 15 22 35 30 26 24 25 28 30 29 23 18 17 17 16 13 10 11 15 18 17 13 12 11 11 15 11 6
6 12 18 24 24 22 21 20 19 19 22 20 7 15 7 10 16 32 31 25 25 25 25 26 28 26 18 16 18 17 15 13 14 12 15 15 15 12 9 11 16 10 7 9
0 22 31 25 26 21 23 24 25 23 27 28 21 15 13 15 23 28 29 26 25 22 21 24 23 18 17 18 23 16 11 13 14 13 13 15 14 8 12 16 11 7 9 9
20 22 28 27 27 27 25 24 26 23 21 25 24 21 20 25 26 27 26 22 20 19 18 19 13 12 16 23 23 25 18 12 14 17 14 14 14 13 13 9 7 9 11 11
22 31 32 32 28 23 26 20 18 15 18 22 22 24 24 25 26 25 24 21 17 14 15 13 10 12 16 19 18 17 15 14 14 17 10 14 14 11 8 6 11 12 13 12
23 29 23 20 20 8 8 12 17 18 19 19 18 23 23 22 22 19 16 10 12 14 11 7 11 9 15 19 19 16 15 16 18 14 13 15 12 8 8 12 13 13 14 13
17 16 13 12 10 12 16 17 18 21 23 22 21 20 18 16 15 14 8 9 12 10 9 11 13 13 12 14 14 17 19 20 19 18 17 14 10 11 13 14 14 14 14 13
16 16 12 8 7 9 10 12 15 20 21 22 21 19 17 16 14 16 15 15 11 9 10 12 14 16 15 16 15 15 17 19 20 19 14 11 12 13 13 15 14 15 14 14
14 12 13 11 12 11 13 14 17 20 20 22 20 21 21 19 18 18 18 16 15 12 11 12 13 14 14 16 17 19 20 17 13 12 12 12 12 13 14 15 15 15 15 16
Wind_Direction
248 253 253 251 252 253 253 253 253 251 252 252 254 256 260 257 256 253 255 253 256 257 257 255 256 255 256 261 265 263 263 256 256 256 258 257 257 258 259 258 261 266 268 264
246 244 251 253 251 249 250 252 251 249 248 250 252 255 255 254 252 255 256 256 256 258 258 257 256 257 256 257 260 258 257 257 260 255 253 252 255 257 260 258 266 268 263 269
235 245 248 247 252 255 255 253 251 249 246 247 248 249 250 251 251 253 258 258 259 260 258 257 257 256 256 256 256 257 257 254 253 253 251 252 252 251 244 249 251 253 260 264
228 227 237 241 243 250 247 253 251 249 249 250 251 249 248 249 250 254 255 256 259 258 259 259 260 256 254 252 251 251 252 256 256 249 254 247 247 244 247 257 260 269 261 270
226 234 230 236 244 252 239 240 249 252 250 247 249 251 249 250 250 249 251 253 255 253 253 254 250 253 253 252 249 247 250 253 250 251 250 252 251 251 254 258 259 270 274 269
225 230 236 241 245 230 239 236 241 248 251 249 247 248 249 250 249 251 252 253 250 253 253 251 253 254 256 257 255 253 251 250 253 254 254 256 257 267 257 261 263 268 273 272
225 233 234 229 233 217 238 241 242 239 250 251 251 248 249 250 250 248 245 246 249 250 252 254 254 254 255 254 256 256 256 257 256 259 259 260 269 269 265 261 268 272 265 269
232 235 236 234 224 222 218 229 232 237 241 244 246 246 247 243 243 244 244 244 246 246 247 249 249 250 250 253 253 254 258 256 257 258 259 265 266 270 268 256 255 272 266 262
236 238 236 229 227 225 219 229 230 234 243 252 253 251 248 245 241 240 243 244 244 244 244 245 252 254 252 252 253 254 254 255 254 254 257 259 266 262 259 252 254 276 279 277
229 227 230 233 230 223 226 227 232 238 246 250 249 250 249 246 244 242 239 242 243 240 239 240 235 246 254 246 250 246 244 246 247 251 253 255 253 255 255 264 257 270 261 266
220 222 223 222 222 221 225 229 234 239 247 250 249 245 245 245 242 241 238 237 235 236 233 227 234 242 245 233 231 233 239 247 246 247 251 254 255 255 257 263 263 259 261 260
199 199 199 200 202 207 218 227 233 236 241 243 241 238 234 232 227 226 225 225 222 226 216 211 227 231 221 236 234 231 239 242 239 241 247 249 248 246 254 254 254 257 261 266
157 159 159 159 160 166 165 198 215 230 239 239 227 229 231 225 224 223 223 216 215 214 198 200 209 250 228 225 225 226 229 233 229 234 240 239 242 249 233 252 264 267 271 278
181 185 188 188 195 183 249 242 252 180 170 162 184 207 215 212 216 218 219 209 209 206 195 202 203 217 231 228 233 229 238 211 230 233 227 221 244 221 239 253 270 282 283 279
222 219 214 206 201 202 214 232 213 202 152 162 193 200 202 209 213 216 208 204 191 179 191 196 185 224 229 233 241 227 234 235 230 217 215 224 240 234 240 265 275 274 277 281
198 205 202 199 204 209 210 223 210 193 167 174 150 190 233 228 218 207 200 192 185 189 196 191 200 210 218 224 223 223 227 233 213 205 218 229 231 236 259 265 272 282 281 284
212 206 199 198 195 201 209 212 193 205 205 196 200 171 337 218 211 206 200 193 190 193 195 198 198 214 221 209 195 222 227 225 211 216 209 219 233 258 262 269 271 271 267 278
179 185 190 186 197 202 209 204 195 205 215 213 211 220 200 228 202 207 186 189 189 197 205 205 210 221 213 206 191 209 214 226 209 209 222 226 253 257 264 262 265 257 273 281
173 182 191 191 185 187 177 179 184 192 208 207 224 188 160 198 185 167 172 179 188 197 205 205 215 213 205 185 205 207 217 220 218 225 232 244 254 256 262 259 251 263 271 257
198 209 176 168 160 147 159 168 179 181 192 166 229 206 197 170 171 175 176 181 209 208 206 210 215 206 205 203 205 217 198 213 238 229 240 256 255 244 270 251 255 263 252 249
358 167 161 155 147 165 174 179 180 184 189 187 186 187 186 175 179 186 192 203 211 212 211 223 215 199 206 217 209 194 206 232 228 237 254 225 225 251 255 258 242 238 247 238
125 139 157 159 168 175 180 193 196 187 191 184 189 197 190 180 187 196 199 210 223 227 218 222 190 170 205 209 210 213 236 247 226 239 226 230 240 244 219 214 227 245 241 227
139 148 160 175 188 193 205 211 206 198 176 164 163 177 189 189 194 203 216 217 214 204 204 216 210 217 225 221 226 229 239 228 199 209 235 223 232 214 212 232 241 241 228 229
155 158 168 172 185 180 138 142 145 151 153 150 161 174 185 190 196 198 211 237 240 245 238 241 231 216 223 225 225 226 218 200 202 224 223 227 206 210 228 230 239 233 228 232
148 165 164 164 149 146 139 147 157 158 161 163 174 183 186 198 214 215 229 247 250 238 231 238 231 225 223 225 218 214 212 214 215 211 215 200 211 225 225 233 240 231 234 237
149 160 160 150 152 156 150 160 173 180 184 185 191 200 191 195 209 207 207 209 215 237 244 239 240 238 235 228 214 204 193 186 185 184 189 209 221 224 228 236 241 238 241 246
147 162 176 186 184 182 187 188 181 187 193 195 191 191 200 212 216 212 212 224 230 236 258 248 240 225 207 191 183 175 167 166 178 193 207 214 221 228 235 242 247 248 250 255
Height
5485 5489 5496 5505 5510 5514 5514 5521 5533 5544 5543 5543 5547 5557 5572 5578 5580 5581 5581 5586 5589 5594 5600 5603 5605 5611 5614 5615 5619 5620 5621 5623 5627 5634 5636 5638 5641 5645 5647 5644 5648 5648 5649 5656
5467 5472 5478 5486 5492 5495 5499 5501 5513 5523 5525 5524 5536 5547 5555 5559 5567 5568 5570 5576 5580 5583 5585 5588 5594 5599 5602 5602 5605 5605 5608 5611 5614 5623 5626 5627 5628 5634 5635 5635 5634 5634 5635 5643
5453 5456 5463 5469 5473 5477 5483 5488 5492 5500 5507 5514 5523 5533 5539 5542 5551 5554 5559 5564 5567 5568 5571 5577 5582 5586 5587 5590 5592 5594 5595 5599 5604 5610 5614 5616 5618 5620 5620 5619 5620 5628 5623 5632
5438 5442 5448 5455 5460 5465 5470 5469 5473 5484 5490 5503 5510 5516 5526 5530 5538 5545 5547 5550 5554 5554 5558 5566 5570 5568 5572 5578 5582 5584 5583 5588 5593 5599 5602 5599 5599 5605 5611 5608 5612 5607 5616 5615
5422 5428 5434 5440 5446 5452 5455 5459 5462 5469 5477 5489 5494 5498 5509 5517 5528 5527 5531 5537 5538 5540 5547 5550 5549 5553 5560 5563 5570 5572 5574 5578 5579 5584 5589 5586 5588 5595 5599 5599 5602 5600 5602 5603
5407 5415 5421 5428 5434 5441 5444 5449 5454 5459 5465 5471 5477 5489 5496 5502 5510 5513 5519 5521 5522 5529 5535 5532 5539 5542 5548 5555 5558 5564 5565 5568 5570 5574 5576 5576 5577 5588 5589 5589 5591 5592 5590 5597
5395 5402 5409 5416 5422 5429 5434 5440 5445 5450 5454 5458 5469 5475 5480 5487 5494 5497 5504 5505 5509 5517 5520 5523 5528 5531 5536 5538 5548 5552 5555 5558 5560 5563 5565 5562 5574 5576 5578 5579 5582 5580 5579 5584
5385 5391 5397 5404 5411 5418 5426 5430 5434 5439 5441 5448 5457 5463 5470 5476 5479 5484 5490 5494 5499 5503 5508 5510 5513 5519 5522 5530 5536 5539 5543 5546 5548 5548 5554 5555 5562 5568 5568 5568 5577 5570 5567 5570
5376 5381 5386 5392 5398 5407 5411 5419 5423 5426 5431 5437 5445 5451 5457 5463 5467 5471 5479 5482 5486 5491 5495 5499 5502 5506 5513 5519 5524 5530 5532 5535 5537 5539 5541 5543 5556 5558 5557 5558 5565 5560 5562 5562
5369 5373 5377 5382 5388 5396 5401 5408 5414 5417 5420 5427 5434 5438 5443 5449 5452 5458 5464 5468 5471 5476 5483 5488 5493 5497 5504 5507 5513 5519 5521 5522 5524 5529 5529 5535 5547 5545 5547 5550 5560 5553 5555 5556
5363 5367 5371 5376 5382 5388 5393 5400 5405 5411 5414 5417 5422 5426 5430 5435 5440 5445 5452 5452 5457 5465 5471 5481 5488 5491 5497 5499 5505 5509 5513 5515 5517 5521 5523 5528 5535 5536 5539 5543 5543 5545 5546 5548
5360 5364 5368 5372 5377 5383 5388 5393 5397 5401 5402 5406 5410 5414 5418 5424 5429 5433 5436 5444 5450 5457 5465 5474 5480 5487 5490 5493 5497 5502 5506 5509 5512 5515 5519 5523 5526 5529 5532 5533 5534 5536 5539 5540
5360 5364 5368 5373 5378 5382 5387 5390 5392 5393 5395 5398 5400 5406 5410 5413 5419 5426 5431 5439 5446 5451 5461 5470 5476 5480 5486 5488 5493 5496 5499 5503 5506 5509 5513 5516 5519 5522 5524 5526 5527 5529 5530 5530
5361 5364 5368 5372 5377 5381 5383 5387 5391 5394 5395 5396 5399 5401 5405 5410 5412 5417 5425 5433 5440 5447 5456 5464 5469 5472 5479 5483 5487 5491 5495 5498 5501 5503 5508 5511 5512 5512 5517 5519 5520 5521 5522 5523
5359 5362 5366 5370 5375 5379 5384 5388 5391 5395 5398 5398 5398 5399 5402 5406 5409 5415 5422 5429 5436 5443 5451 5458 5463 5470 5473 5478 5482 5487 5491 5493 5496 5499 5502 5505 5506 5509 5512 5513 5514 5515 5516 5516
5356 5359 5363 5367 5372 5377 5381 5384 5389 5393 5398 5398 5400 5402 5403 5405 5409 5414 5420 5427 5434 5441 5448 5454 5461 5466 5471 5474 5477 5484 5487 5489 5491 5495 5497 5500 5502 5505 5507 5507 5508 5508 5509 5509
5354 5356 5360 5365 5369 5372 5376 5382 5391 5394 5397 5400 5402 5404 5406 5407 5409 5414 5420 5426 5435 5442 5446 5454 5460 5462 5465 5469 5476 5480 5484 5486 5489 5492 5493 5495 5498 5500 5501 5502 5502 5503 5504 5505
5353 5356 5359 5362 5366 5371 5375 5381 5387 5391 5394 5398 5400 5403 5406 5408 5410 5414 5419 5428 5435 5441 5447 5452 5457 5460 5463 5465 5475 5478 5480 5483 5486 5488 5489 5492 5494 5495 5495 5496 5497 5499 5500 5500
5353 5356 5359 5360 5364 5369 5375 5381 5386 5390 5395 5398 5401 5404 5406 5408 5410 5414 5423 5431 5436 5442 5446 5451 5454 5457 5458 5468 5471 5474 5477 5480 5482 5484 5486 5488 5488 5490 5491 5492 5494 5496 5496 5496
5351 5354 5358 5361 5366 5372 5377 5382 5385 5388 5392 5397 5399 5405 5408 5412 5414 5420 5427 5432 5437 5441 5446 5448 5450 5454 5461 5465 5468 5471 5474 5476 5478 5479 5481 5482 5484 5486 5488 5490 5492 5492 5493 5493
5347 5349 5359 5365 5369 5374 5378 5380 5383 5387 5390 5395 5401 5405 5409 5413 5419 5424 5429 5434 5437 5441 5446 5446 5449 5454 5459 5462 5464 5467 5470 5473 5474 5475 5476 5477 5480 5483 5484 5487 5488 5489 5490 5490
5353 5357 5363 5368 5370 5374 5378 5379 5383 5386 5390 5395 5401 5407 5411 5416 5420 5425 5430 5433 5436 5439 5443 5445 5448 5454 5456 5458 5461 5464 5466 5468 5469 5471 5473 5476 5478 5479 5481 5483 5484 5486 5487 5487
5358 5361 5366 5369 5371 5374 5378 5381 5386 5389 5392 5397 5402 5407 5412 5417 5421 5425 5429 5432 5435 5438 5441 5444 5448 5451 5452 5454 5456 5459 5461 5463 5465 5468 5471 5473 5475 5477 5478 5480 5482 5483 5484 5485
5364 5368 5370 5372 5375 5378 5382 5387 5390 5395 5398 5401 5406 5410 5413 5418 5422 5425 5428 5432 5434 5436 5438 5441 5442 5445 5448 5450 5452 5454 5457 5459 5462 5465 5468 5470 5472 5474 5476 5478 5479 5480 5481 5482
5369 5373 5376 5379 5381 5385 5387 5391 5394 5399 5402 5405 5410 5413 5417 5420 5423 5426 5427 5429 5431 5434 5436 5437 5439 5442 5444 5445 5447 5450 5453 5456 5459 5463 5466 5468 5470 5472 5473 5475 5476 5477 5478 5478
5375 5378 5381 5384 5386 5388 5392 5395 5398 5401 5404 5408 5411 5414 5418 5420 5422 5423 5425 5427 5429 5431 5432 5434 5436 5437 5439 5441 5443 5446 5448 5452 5456 5460 5462 5465 5467 5469 5470 5471 5472 5473 5474 5474
5378 5381 5383 5385 5388 5389 5392 5395 5399 5402 5405 5408 5411 5413 5415 5418 5418 5420 5422 5425 5426 5427 5428 5430 5431 5432 5434 5437 5440 5443 5447 5451 5455 5457 5460 5462 5464 5465 5466 5467 5468 5469 5470 5470